Location: Azul
(36.7830°S, 59.8500°W)
Time: 02:43:29
(UTC-03:00)

CAS-4A - Pass Details

Date: 26 October 2021
Orbit: 529 x 539 km, 43.0° (Epoch: 04 December)

Event Time Altitude Azimuth Distance (km) Brightness Sun altitude
Exits shadow 03:06:44 27° 134° (SE) 1,050 ? -30.3°
Drops below altitude 10° 03:08:49 10° 120° (ESE) 1,794 ? -30.0°
Sets 03:11:07 0° 115° (ESE) 2,687 ? -29.7°
